Location: Arnold Cemetery
(38.6473°N, 100.0475°W)
Time: 02:48:01
(UTC+00:00)

Daily predictions for brighter satellites

Satellite Brightness Start Highest point End
(mag) Time Altitude Azimuth Time Altitude Azimuth Time Altitude Azimuth
Cosmos 2297 Rocket 2.7 02:11:42 10° N 02:17:08 47° ENE 02:22:33 10° SE
Cosmos 1814 Rocket 4.0 02:13:28 10° NNW 02:18:36 69° ENE 02:23:42 10° SSE
Resurs 01 Rocket 3.1 02:17:19 10° ESE 02:20:37 21° ENE 02:23:55 10° NNE
Meteor 1-5 Rocket 4.1 02:17:14 10° N 02:22:37 75° E 02:27:53 10° SSE
SJ-6B 2.7 02:20:18 10° SSE 02:24:07 76° ENE 02:27:53 10° N
Cosmos 1315 Rocket 3.4 02:20:28 10° N 02:24:17 39° ENE 02:28:03 10° SSE
Cosmos 841 Rocket 4.3 02:21:17 10° NNW 02:26:17 52° WSW 02:31:16 10° S
USA 129 2.4 02:28:08 12° ESE 02:28:34 13° E 02:29:09 10° ENE
Cosmos 2098 Rocket 3.7 02:27:37 10° NNW 02:30:30 36° W 02:33:10 10° SSW
Meteor 1-10 Rocket 4.4 02:25:12 10° S 02:30:33 53° E 02:35:59 10° NNE
Cosmos 405 4.3 02:28:57 10° NNE 02:31:45 23° ENE 02:34:33 10° SE
Cosmos 1340 4.1 02:29:17 10° SE 02:32:01 20° E 02:34:46 10° NE
Okean-O 2.9 02:27:45 10° S 02:32:09 70° WSW 02:36:35 10° NNW
Meteor 1-14 Rocket 4.4 02:29:16 10° N 02:35:11 90° ENE 02:40:56 10° S
Cosmos 2233 Rocket 4.2 02:30:53 10° S 02:37:12 83° W 02:43:33 10° N
Meteor 1-27 Rocket 4.3 02:35:20 10° SSE 02:40:38 40° E 02:46:03 10° NNE
Cosmos 1743 4.3 02:40:08 10° NNE 02:42:57 20° ENE 02:45:13 12° ESE
IGS 5A 3.4 02:39:18 10° SSE 02:43:26 84° E 02:47:37 10° N
Spot 2 4.3 02:40:01 10° S 02:44:03 67° WSW 02:48:04 10° NNW
ATLAS 2AS CENTAUR R/B 3.6 02:37:34 10° S 02:44:19 33° ESE 02:51:00 10° NE
Cosmos 1666 4.5 02:41:10 10° NNW 02:44:34 32° W 02:47:57 10° SSW
PSLV R/B 4.0 02:41:24 10° NNE 02:45:23 56° E 02:49:20 10° S
BREEZE-M DEB (TANK) 3.4 02:43:11 10° WNW 02:46:39 60° SW 02:51:15 12° SE
NOSS 3-4 (A) 3.5 02:43:25 10° SW 02:49:04 77° NW 02:55:06 10° NNE
NOSS 3-4 (C) 3.5 02:43:27 10° SW 02:49:07 78° WNW 02:55:10 10° NNE
CZ-4B R/B 1.5 02:46:59 10° NNE 02:50:04 47° E 02:53:05 10° S
Cosmos 968 Rocket 4.3 02:47:35 10° SSW 02:52:38 55° WNW 02:57:40 10° N
OE (NEXTSAT) 4.5 02:50:15 10° WSW 02:53:32 71° NNW 02:56:50 10° ENE
MetOp-A 4.0 02:49:53 10° S 02:53:55 57° WSW 02:57:46 10° NNW
COBE Rocket 4.1 02:48:59 10° S 02:54:06 80° W 02:59:07 10° NNW
Cosmos 2219 3.4 02:49:40 10° NNW 02:55:12 57° ENE 02:59:50 15° SE
Meteor 1-11 Rocket 4.0 02:51:45 10° N 02:57:39 58° ENE 03:03:02 12° SSE
SPOT 1/Viking Rocket 4.0 02:53:29 13° SE 02:57:50 46° ENE 03:02:46 10° N
H-2A R/B 2.2 02:57:14 10° N 03:01:20 70° WNW 03:05:24 10° SSW
Cosmos 1328 Rocket 3.9 03:00:29 10° SSW 03:04:45 66° W 03:09:04 10° N
Cosmos 1464 Rocket 4.1 02:58:48 10° SSE 03:04:50 55° E 03:10:49 10° NNE
OBJECT-B 3.8 03:05:07 10° WSW 03:05:48 11° W 03:06:28 10° W
Cosmos 2263 Rocket 3.9 03:03:12 10° N 03:07:05 19° NE 03:10:33 11° E
USA 186 4.3 03:06:33 10° WSW 03:07:23 11° W 03:08:12 10° WNW
Okean 1 4.4 03:09:21 21° SE 03:10:52 26° E 03:14:15 10° NNE
Cosmos 1536 3.0 03:07:15 10° N 03:11:13 54° E 03:13:44 21° SSE
RESURS DK-1 3.3 03:09:41 20° SE 03:11:20 26° ESE 03:14:48 10° NE
Aureole 1 Rocket 2.2 03:08:02 10° SSW 03:11:28 87° WNW 03:14:30 10° NNE
Cosmos 2208 Rocket 4.4 03:06:21 10° NNW 03:11:45 66° WSW 03:16:48 11° S
IRAS Rocket 4.2 03:06:16 10° NNE 03:11:55 79° ESE 03:17:32 10° SSW
Cosmos 2344 3.4 03:07:05 10° SSW 03:14:51 77° ESE 03:22:18 10° NE
NOSS 3-2 (C) 4.5 03:08:08 10° NW 03:15:55 65° WSW 03:23:44 14° SSE
SL-4 R/B 2.6 03:15:11 10° NW 03:19:40 56° NE 03:22:14 22° ESE
Ariane Rocket 3.0 03:18:14 19° SSE 03:21:57 74° ENE 03:27:01 10° N
CENTAUR R/B 4.3 03:16:21 10° NW 03:24:12 41° WSW 03:32:26 10° S
Cosmos 2227 Rocket 2.3 03:18:36 10° NNW 03:24:16 73° WSW 03:28:31 18° SSE
Nadezhda 4 Rocket 4.3 03:18:36 10° N 03:24:37 49° E 03:28:17 23° SE
IRS-1A Rocket 4.4 03:21:20 14° S 03:26:10 81° WSW 03:31:57 10° NNW
Cosmos 1980 Rocket 2.1 03:24:05 10° SSW 03:29:41 80° ESE 03:35:22 10° NNE
ASTRO E2 4.0 03:29:03 10° WSW 03:32:11 23° S 03:32:28 23° S
Cosmos 1933 Rocket 3.5 03:27:43 10° N 03:32:12 71° E 03:34:30 28° SSE
SPOT 5 3.8 03:34:23 25° ESE 03:36:41 38° ENE 03:41:27 10° N
ISS -1.0 03:35:11 10° NNW 03:37:03 14° NNE 03:38:54 10° NE
Cosmos 2369 3.9 03:32:01 10° SSW 03:37:39 76° WNW 03:43:19 10° NNE
Cosmos 2322 Rocket 3.9 03:38:51 15° E 03:38:51 15° E 03:41:16 10° ENE
Meteor 1-19 Rocket 4.1 03:36:57 21° S 03:40:35 64° E 03:45:56 10° NNE
Cosmos 1975 4.4 03:37:40 10° NNE 03:40:42 20° ENE 03:41:00 20° E
SL-12 R/B (Aux Motor) 4.2 03:38:37 10° WSW 03:41:08 50° NNW 03:41:17 48° N
Terra 3.1 03:40:18 23° E 03:41:43 27° ENE 03:45:40 10° NNE
Helios 1A Rocket 3.3 03:41:33 36° ESE 03:42:36 44° ENE 03:46:26 10° N
SJ 16-02 1.2 03:39:51 21° S 03:42:40 72° ESE 03:47:02 10° NNE
Timation 2 Rocket 4.3 03:37:03 10° NNW 03:43:38 62° ENE 03:47:15 28° SE
Cosmos 1697 Rocket 4.3 03:43:55 10° SW 03:49:04 35° WNW 03:54:14 10° N
OAO 3 Rocket 3.5 03:46:56 10° W 03:51:41 48° S 03:52:53 39° SSE
SPOT 3 Rocket 3.5 03:49:44 31° SSE 03:52:16 88° ENE 03:57:26 10° NNW
Cosmos 1354 Rocket 4.2 03:49:03 10° SSW 03:54:17 72° WNW 03:59:36 10° NNE
Cosmos 1777 Rocket 3.9 03:51:22 24° S 03:54:29 70° ESE 03:59:42 10° NNE
Spot 2 Rocket 3.6 03:53:55 37° SE 03:55:42 59° ENE 04:00:40 10° N
Resurs 01 Rocket 3.1 03:53:43 14° SSW 03:56:53 32° W 04:00:51 10° NNW
Cosmos 2297 Rocket 4.1 03:56:31 10° NW 04:00:48 22° W 04:05:03 10° SSW
Cosmos 773 Rocket 4.0 03:57:19 10° NNW 04:02:31 66° ENE 04:04:05 43° SE
Cosmos 389 Rocket 3.9 04:02:19 10° NNW 04:05:30 33° W 04:06:38 26° SW
Cosmos 2034 Rocket 4.3 04:01:51 14° SSW 04:07:19 68° W 04:13:39 10° N
Meteor 2-21 4.4 04:04:06 10° N 04:10:13 88° W 04:13:01 35° S
Meteor 2-9 Rocket 4.2 04:05:25 10° N 04:11:12 87° W 04:13:23 39° S
USA 215 3.8 04:05:27 10° ENE 04:10:52 33° ESE 04:10:52 33° ESE
Cosmos 2228 Rocket 3.3 04:14:40 37° SSW 04:16:23 71° W 04:20:56 10° N
SL-16 R/B 2.4 04:15:42 46° SE 04:16:31 49° ESE 04:21:57 10° NNE
Cosmos 921 Rocket 3.5 04:12:10 10° NNW 04:16:36 55° WSW 04:17:43 42° SSW
CARTOSAT-1 4.4 04:15:24 31° SW 04:16:54 43° W 04:21:01 10° NNW
Cosmos 1346 Rocket 3.1 04:21:06 54° ENE 04:21:06 54° ENE 04:24:36 10° NNE
Cosmos 1869 Rocket 3.7 04:17:36 10° NNW 04:22:04 69° W 04:22:58 53° SSW
Meteor 2-15 4.4 04:21:01 45° SSE 04:22:40 61° E 04:28:39 10° NNE
USA 81 4.0 04:22:41 54° SE 04:23:41 66° E 04:28:55 10° N
Meteor 2-21 Rocket 4.3 04:17:38 10° N 04:23:46 88° E 04:25:52 44° S
Meteor 1-18 Rocket 4.3 04:22:32 33° SSW 04:25:14 79° W 04:30:54 10° N
Cosmos 2292 Rocket 4.0 04:24:43 10° N 04:26:38 36° N 04:26:38 36° N
Cosmos 2279 Rocket 4.2 04:28:03 46° SE 04:29:16 53° E 04:35:17 10° NNE
Cosmos 158 Rocket 4.0 04:25:31 10° NNW 04:30:40 68° ENE 04:31:26 59° ESE
ERS-1 Rocket 3.0 04:32:44 53° SSW 04:33:48 71° WSW 04:38:50 10° NNW
Cosmos 44 Rocket 3.5 04:29:30 10° NNW 04:34:06 51° NE 04:34:29 49° ENE
ATLAS 2AS CENTAUR R/B 3.6 04:27:22 10° SW 04:35:00 56° NW 04:42:29 10° NNE
Meteor 2-16 Rocket 4.4 04:30:07 10° N 04:36:18 88° W 04:38:04 50° S
ARIANE 5 R/B 2.5 04:38:20 82° ESE 04:38:26 83° ENE 04:42:55 10° N
Cosmos 1538 Rocket 4.1 04:35:15 10° N 04:40:25 58° ENE 04:40:53 55° E
Cosmos 2360 Rocket 3.1 04:43:37 33° E 04:43:37 33° E 04:47:44 10° NE
Cosmos 1707 Rocket 3.7 04:43:16 63° WSW 04:43:38 66° W 04:48:02 10° N
Geosat 4.4 04:47:02 47° E 04:47:35 49° ENE 04:52:25 10° NNW
Cosmos 2263 Rocket 2.3 04:45:57 10° NNW 04:51:27 62° WSW 04:52:15 56° SSW
Cosmos 2180 Rocket 4.4 04:54:10 60° SE 04:54:52 64° E 05:00:56 10° NNE
SL-4 R/B 4.1 04:55:28 10° WNW 04:57:41 20° WSW 04:57:41 20° WSW
ATLAS CENTAUR R/B 4.1 04:57:37 10° N 05:00:16 14° NE 05:01:57 12° ENE
ATLAS 3B R/B 3.0 04:58:42 10° NNW 05:06:07 67° NE 05:08:17 48° ESE
Cosmos 1066 Rocket 4.1 05:06:12 76° SSE 05:06:36 82° E 05:12:19 10° N
ISS -1.3 05:11:02 10° NW 05:12:25 22° NW 05:12:25 22° NW
Cosmos 1733 Rocket 3.8 05:13:06 10° NNW 05:16:54 47° WNW 05:16:54 47° WNW
Cosmos 990 Rocket 4.0 05:17:59 75° W 05:18:05 75° WNW 05:23:21 10° NNE
Terra 3.1 05:19:10 30° W 05:19:20 30° W 05:23:30 10° NW
Cosmos 1680 Rocket 4.2 05:15:30 10° N 05:20:26 42° ENE 05:20:26 42° ENE
Cosmos 2322 Rocket 2.4 05:20:36 56° WSW 05:21:30 65° WNW 05:27:06 10° NNE
SJ 16-02 4.4 05:21:04 10° WNW 05:21:44 10° WNW 05:22:23 10° NW
Cosmos 2333 Rocket 3.0 05:25:36 38° ENE 05:25:36 38° ENE 05:29:41 10° NE
Cosmos 1908 Rocket 4.5 05:24:05 10° N 05:27:10 44° NNE 05:27:10 44° NNE
Cosmos 1898 Rocket 3.6 05:29:35 76° NNE 05:29:35 76° NNE 05:34:29 10° NNE
ALOS 2 4.2 05:30:43 26° NE 05:30:43 26° NE 05:33:37 10° N
Meteor 1-23 Rocket 4.4 05:31:36 63° ENE 05:31:36 63° ENE 05:37:02 10° NNE
Cosmos 1844 Rocket 3.0 05:26:00 10° NNW 05:31:29 56° ENE 05:31:29 56° ENE
Cosmos 1655 Rocket 3.9 05:28:18 10° N 05:34:32 74° E 05:34:47 73° ESE
Spot 4 4.4 05:36:10 51° NE 05:36:10 51° NE 05:40:07 10° N
Iridium 4 Rocket 3.8 05:32:21 10° N 05:36:03 56° NNE 05:36:03 56° NNE
CZ-4C R/B 4.5 05:31:05 10° NNW 05:37:13 28° NE 05:43:11 13° E
Cosmos 2219 Rocket 2.9 05:47:59 42° ENE 05:47:59 42° ENE 05:52:03 10° NNE
Cosmos 1844 3.8 05:47:09 10° NNW 05:52:45 71° NE 05:52:45 71° NE
USA 215 3.5 05:48:00 10° NE 05:54:29 65° NW 05:58:09 27° WSW
SL-16 R/B 4.1 05:57:29 14° W 06:00:51 24° NW 06:05:22 10° N
ADEOS Rocket 3.4 06:03:06 47° ENE 06:03:09 47° ENE 06:08:44 10° N
Cosmos 1726 4.4 06:00:50 10° NNW 06:02:20 23° NNW 06:02:20 23° NNW
Intercosmos 25 4.3 05:59:21 10° N 06:07:19 86° NE 06:07:19 86° NE
Cosmos 2266 Rocket 4.2 06:04:06 10° NNW 06:10:08 55° W 06:10:11 55° W
Cosmos 372 Rocket 4.4 06:12:12 58° N 06:12:12 58° N 06:16:28 10° NNE
Cosmos 2237 Rocket 4.0 06:16:53 19° E 06:16:53 19° E 06:19:36 10° NE
COSMOS 2428 3.1 06:18:12 54° ENE 06:18:12 54° ENE 06:22:46 10° NNE
Meteor 2-17 Rocket 4.4 06:19:33 10° N 06:25:31 84° N 06:25:31 84° N
Cosmos 2360 Rocket 3.6 06:25:20 28° W 06:26:38 31° WNW 06:31:36 10° N
USA 267 3.9 06:24:07 29° E 06:27:17 52° NE 06:33:35 10° NW
Meteor 1-21 4.3 06:31:23 75° NNE 06:31:23 75° NNE 06:36:41 10° N
In-Cosmos 22 4.4 06:33:46 68° NNE 06:33:46 68° NNE 06:38:34 10° N
ATLAS CENTAUR R/B 2.9 06:34:56 10° NNW 06:37:56 38° NNW 06:37:56 38° NNW
Cosmos 1867 3.9 06:47:31 62° NNW 06:47:31 62° NNW 06:52:24 10° NNE
Cosmos 2278 Rocket 3.4 06:44:33 10° N 06:49:40 34° ENE 06:50:48 31° E
ATLAS 3B R/B 4.2 06:50:26 10° WNW 06:55:31 25° W 06:55:31 25° W
S3M 4.1 06:57:20 67° E 06:57:23 67° E 07:03:42 10° NNE
NOSS 3-1 (A) 4.4 06:51:11 10° NNW 06:58:50 66° NE 07:02:42 36° ESE
Cosmos 1553 Rocket 4.0 07:01:53 70° WNW 07:01:53 70° WNW 07:07:55 10° N
SL-16 R/B 4.2 07:03:37 17° E 07:03:37 17° E 07:06:41 10° ENE
NOSS 3-1 (C) 4.1 06:58:45 10° NW 07:06:34 75° WSW 07:07:55 64° S
Cosmos 1980 4.0 07:07:55 58° ENE 07:07:55 58° ENE 07:12:46 10° NNE
Cosmos 2333 Rocket 3.8 07:07:35 24° WNW 07:08:46 26° NW 07:13:27 10° N
Meteor 2-10 Rocket 4.4 07:19:51 10° N 07:25:11 42° ENE 07:25:44 41° E
NOSS 0 Rocket 3.9 07:25:16 70° W 07:25:31 71° WNW 07:31:46 10° NNE
CZ-4C R/B 3.0 07:18:53 10° NW 07:26:31 80° WSW 07:28:18 60° SSE
USA 305 4.4 07:29:53 35° N 07:29:53 35° N 07:32:42 10° NE
GP-B 4.2 07:24:30 10° NNE 07:27:49 40° NE 07:27:49 40° NE
Cosmos 2219 Rocket 3.9 07:29:39 21° WNW 07:30:53 22° NW 07:35:12 10° N
Lacrosse 5 2.9 07:35:14 39° E 07:35:14 39° E 07:38:48 10° NE
Cosmos 371 Rocket 4.0 07:40:34 47° NW 07:40:34 47° NW 07:44:37 10° N
Meteor 1-16 Rocket 4.5 07:34:23 10° NNW 07:39:51 60° WNW 07:39:51 60° WNW
Lacrosse 5 rocket 3.6 07:43:58 17° ENE 07:43:58 17° ENE 07:45:11 10° ENE
Cosmos 1745 Rocket 4.1 07:37:08 10° NNW 07:43:10 59° W 07:43:10 59° W
Meteor 2-5 Rocket 4.2 07:45:31 50° ESE 07:45:59 52° E 07:51:30 10° NNE
CZ-2D R/B 2.9 07:42:27 10° NNE 07:47:28 40° E 07:47:44 39° ESE
Meteor 2-12 Rocket 4.3 07:42:20 10° N 07:48:23 77° W 07:48:34 76° WSW
ADEOS Rocket 4.5 07:50:02 20° WNW 07:50:02 20° WNW 07:53:14 10° NW
Cosmos 304 Rocket 4.2 07:51:08 59° NNW 07:51:08 59° NNW 07:55:16 10° NNE
Cosmos 1953 4.1 07:46:52 10° NNW 07:48:49 26° NNW 07:48:49 26° NNW
Okean 1 Rocket 4.4 07:50:01 10° NNW 07:52:44 33° NW 07:52:44 33° NW
Cosmos 2237 Rocket 2.6 07:58:41 49° WNW 07:59:03 50° WNW 08:04:37 10° NNE
MOZ.5/SAFIR/RUBIN 5/SL-8 4.0 08:08:32 65° NW 08:08:32 65° NW 08:12:40 10° NNW
USA 267 3.7 08:11:25 41° WSW 08:11:25 41° WSW 08:16:32 10° WNW
Cosmos 2084 Rocket 4.3 08:15:05 40° N 08:15:05 40° N 08:17:50 10° NNE
Resurs 1-4 Rocket 2.0 08:10:29 10° NNE 08:15:46 77° ESE 08:16:15 71° SSE
SL-16 R/B 3.0 08:15:02 29° SE 08:18:11 59° ENE 08:24:18 10° N
Cosmos 1943 Rocket 2.9 08:15:47 10° NNW 08:21:19 51° ENE 08:25:08 20° SE
USA 229 DEB 4.1 08:15:47 10° NW 08:23:05 54° WSW 08:24:29 48° SSW
USA 229 4.0 08:15:53 10° NW 08:23:11 54° WSW 08:24:38 48° SSW
Cosmos 2074 Rocket 4.2 08:23:36 10° N 08:29:54 71° E 08:32:36 36° SSE
ADEOS II 2.5 08:25:58 10° NNE 08:31:07 54° E 08:32:23 43° SE
IDEFIX/ARIANE 42P 3.4 08:26:28 10° NNE 08:31:30 44° E 08:33:04 35° SE
Cosmos 1455 Rocket 3.6 08:27:57 10° NNW 08:31:35 47° WNW 08:31:35 47° WNW
Cosmos 2278 Rocket 3.2 08:28:41 10° NW 08:32:36 30° W 08:32:36 30° W
Cosmos 839 Rocket 4.5 08:27:19 10° NW 08:33:42 52° WSW 08:35:17 45° SSW
Cosmos 1536 Rocket 3.8 08:36:38 55° ESE 08:37:06 59° E 08:41:26 10° NNE
Thor Agena Rocket 4.5 08:33:06 10° N 08:37:49 34° WNW 08:38:29 33° W
CZ-4 R/B 3.9 08:36:37 10° N 08:41:10 58° WNW 08:41:24 57° W
FALCON 9 R/B 4.5 08:10:06 10° W 08:44:47 58° SSW 08:53:18 10° SE
Cosmos 1975 Rocket 4.4 08:45:19 28° WNW 08:45:19 28° WNW 08:48:48 10° NNW
Cosmos 2184 Rocket 3.9 08:38:50 10° N 08:45:07 89° ENE 08:47:43 38° S
NPP 3.6 08:40:04 10° N 08:45:27 71° WNW 08:46:35 54° SW
Cosmos 1455 2.2 08:42:57 10° N 08:46:22 72° NNE 08:46:22 72° NNE
SL-16 R/B 2.3 08:45:29 49° WSW 08:46:44 62° WNW 08:52:22 10° NNE
Cosmos 2369 Rocket 3.9 08:42:35 10° N 08:47:33 32° ENE 08:52:29 10° ESE
Cosmos 1025 Rocket 4.2 08:51:25 29° WNW 08:51:25 29° WNW 08:54:51 10° NNW
Cosmos 1271 Rocket 3.7 08:47:53 10° N 08:51:35 44° ENE 08:52:48 32° SE
UNK 3.6 08:52:25 59° S 08:53:16 83° WSW 08:57:54 10° NNW
YAOGAN 11 4.0 08:54:02 59° S 08:54:51 86° WSW 08:59:21 10° NNW
COSMOS 2455 2.8 08:57:22 44° SSW 08:59:25 85° WNW 09:05:29 10° NNE
MOS 1 Rocket 2.9 09:00:29 60° SSW 09:01:10 77° WSW 09:05:28 10° NNW
Meteor 1-24 Rocket 4.5 09:05:48 31° W 09:06:59 35° WNW 09:11:59 10° N
Cosmos 1603 4.4 09:07:22 24° SSE 09:10:22 46° ESE 09:15:44 10° NE
Helios 1B rocket 4.2 09:08:00 10° NE 09:11:25 26° E 09:14:02 14° SSE
Nadezhda 1 Rocket 4.1 09:13:36 34° SSW 09:16:26 65° W 09:22:43 10° N
Lacrosse 5 3.3 09:14:24 20° W 09:17:01 30° NW 09:21:32 10° NNE
MSX 3.8 09:11:45 10° NNE 09:17:34 90° SE 09:20:37 30° SSW
Cosmos 1544 Rocket 4.4 09:14:42 10° NNW 09:18:36 31° W 09:18:37 31° W
Lacrosse 5 rocket 2.6 09:19:29 24° WNW 09:20:44 29° NW 09:24:17 10° NNE
Helios 1A 2.9 09:19:40 40° S 09:21:05 71° WSW 09:25:18 10° NNW
CZ-2D R/B 3.5 09:22:59 10° NNW 09:27:15 25° WNW 09:29:03 21° W
Lacrosse 4 Rocket 4.0 09:28:57 10° SE 09:31:18 14° ESE 09:33:37 10° ENE
Cosmos 1703 3.7 09:32:08 38° WSW 09:32:59 45° W 09:36:46 10° N
Cosmos 1892 Rocket 4.1 09:33:24 18° S 09:36:37 59° E 09:41:01 10° NNE
GPS 2-04 Rocket1 3.4 09:39:12 28° S 09:39:27 28° SSE 09:42:29 10° ESE
Cosmos 1943 3.2 09:37:59 25° SSW 09:41:26 85° WNW 09:47:10 10° NNE
Meteor 2-1 Rocket 4.3 09:37:03 10° N 09:42:49 82° E 09:48:25 10° S
Cosmos 1726 Rocket 3.9 09:39:11 10° N 09:43:35 67° E 09:47:55 10° SSE
Cosmos 1140 Rocket 4.1 09:39:54 10° N 09:45:06 59° ENE 09:50:15 10° SSE
ATLAS 2A CENTAUR R/B 4.4 09:33:44 19° SW 09:45:17 40° S 09:52:34 10° ESE
Cosmos 2366 rocket 4.5 09:40:53 10° N 09:46:59 62° E 09:53:06 10° SSE
Cosmos 2341 Rocket 4.0 09:42:02 10° N 09:48:27 87° W 09:54:50 10° S
SL-19 R/B 4.4 09:43:14 10° NNE 09:49:20 86° WNW 09:53:58 17° SSW
SeaSat 1 4.1 09:46:31 10° NE 09:50:43 28° ESE 09:54:53 10° SSE
SL-8 Rocket 4.1 09:47:45 10° N 09:54:06 86° E 10:00:26 10° S
[s.n.52708] 2.7 09:53:18 38° SSW 09:54:10 67° SE 09:56:58 10° NE
[s.n.52707] 2.6 09:53:24 38° SSW 09:54:16 67° SE 09:57:05 10° NE
[s.n.52703] 2.7 09:53:31 38° SSW 09:54:24 68° SE 09:57:12 10° NE
[s.n.52705] 2.6 09:53:37 38° SSW 09:54:30 68° SE 09:57:19 10° NE
[s.n.52706] 2.6 09:53:44 38° SSW 09:54:38 68° SE 09:57:26 10° NE
[s.n.52701] 2.6 09:53:51 38° SSW 09:54:44 68° SE 09:57:33 10° NE
[s.n.52704] 2.6 09:53:58 38° SSW 09:54:51 69° SE 09:57:40 10° NE
Resurs 1-4 Rocket 4.1 09:52:27 10° NNW 09:54:54 13° WNW 09:57:19 10° W
[s.n.52699] 2.6 09:54:04 38° SSW 09:54:58 69° SE 09:57:47 10° NE
[s.n.52702] 2.6 09:54:11 37° SSW 09:55:05 69° SE 09:57:54 10° NE
[s.n.52697] 2.6 09:54:18 37° SSW 09:55:13 70° SE 09:58:01 10° NE
[s.n.52700] 2.6 09:54:24 37° SSW 09:55:19 70° SE 09:58:08 10° NE
[s.n.52695] 2.6 09:54:31 37° SSW 09:55:27 70° SE 09:58:16 10° NE
[s.n.52698] 2.6 09:54:38 37° SSW 09:55:33 70° SE 09:58:22 10° NE
[s.n.52693] 2.6 09:54:45 37° SSW 09:55:40 71° SE 09:58:30 10° NE
[s.n.52696] 2.6 09:54:51 37° SSW 09:55:47 71° SE 09:58:36 10° NE
[s.n.52691] 2.6 09:54:58 37° SSW 09:55:55 71° SE 09:58:44 10° NE
[s.n.52689] 2.6 09:55:05 37° SSW 09:56:02 71° SE 09:58:51 10° NE
[s.n.52694] 2.6 09:55:12 37° SSW 09:56:09 72° SE 09:58:58 10° NE
[s.n.52692] 2.6 09:55:19 36° SSW 09:56:15 72° SE 09:59:05 10° NE
[s.n.52687] 2.6 09:55:25 36° SSW 09:56:23 72° SE 09:59:12 10° NE
[s.n.52685] 2.6 09:55:32 36° SSW 09:56:29 72° SE 09:59:19 10° NE
[s.n.52690] 2.6 09:55:39 36° SSW 09:56:37 73° SE 09:59:26 10° NE
[s.n.52688] 2.6 09:55:46 36° SSW 09:56:44 73° SE 09:59:33 10° NE
[s.n.52683] 2.6 09:55:52 36° SSW 09:56:51 73° SE 09:59:40 10° NE
[s.n.52686] 2.6 09:55:59 36° SW 09:56:58 74° SE 09:59:48 10° NE
[s.n.52681] 2.6 09:56:06 36° SW 09:57:05 74° SE 09:59:55 10° NE
[s.n.52679] 2.6 09:56:13 36° SW 09:57:12 74° SE 10:00:02 10° NE
[s.n.52684] 2.6 09:56:20 36° SW 09:57:19 74° SE 10:00:09 10° NE
[s.n.52682] 2.6 09:56:27 35° SW 09:57:27 75° SE 10:00:16 10° NE
[s.n.52677] 2.6 09:56:34 35° SW 09:57:34 75° SE 10:00:24 10° NE
[s.n.52680] 2.6 09:56:41 35° SW 09:57:41 75° SE 10:00:31 10° NE
[s.n.52675] 2.6 09:56:47 35° SW 09:57:48 76° SE 10:00:38 10° NE
[s.n.52678] 2.6 09:56:54 35° SW 09:57:55 76° SE 10:00:45 10° NE
[s.n.52673] 2.6 09:57:02 35° SW 09:58:03 76° SE 10:00:53 10° NE
[s.n.52676] 2.6 09:57:09 35° SW 09:58:10 76° SE 10:01:00 10° NE
SL-24 DEB 4.4 09:53:30 10° S 09:58:14 78° E 10:02:58 10° N
[s.n.52671] 2.6 09:57:17 35° SW 09:58:18 77° SE 10:01:07 10° NE
[s.n.52669] 2.6 09:57:23 35° SW 09:58:25 77° SE 10:01:14 10° NE
[s.n.52674] 2.6 09:57:30 34° SW 09:58:32 77° SE 10:01:22 10° NE
Cosmos 1892 3.5 09:54:55 10° S 09:58:34 49° E 10:02:13 10° NNE
[s.n.52672] 2.5 09:57:36 34° SW 09:58:38 78° SE 10:01:29 10° NE
[s.n.52667] 2.5 09:57:44 34° SW 09:58:46 78° SE 10:01:37 10° NE
[s.n.52665] 2.6 09:57:51 34° SW 09:58:54 78° SE 10:01:44 10° NE
[s.n.52670] 2.5 09:57:58 34° SW 09:59:01 78° SE 10:01:52 10° NE
[s.n.52668] 2.5 09:58:05 34° SW 09:59:09 79° SE 10:01:59 10° NE
[s.n.52666] 2.5 09:58:12 34° SW 09:59:16 79° SE 10:02:07 10° NE
[s.n.52663] 2.5 09:58:19 34° SW 09:59:23 79° SE 10:02:13 10° NE
[s.n.52662] 2.5 09:58:26 34° SW 09:59:31 80° SE 10:02:21 10° NE
[s.n.52664] 2.5 09:58:33 33° SW 09:59:38 80° SE 10:02:28 10° NE
[s.n.52661] 2.5 09:58:41 34° SW 09:59:46 80° SE 10:02:36 10° NE
[s.n.52660] 2.5 09:58:47 33° SW 09:59:52 81° SE 10:02:43 10° NE
[s.n.52656] 2.5 09:58:55 33° SW 10:00:01 81° SE 10:02:50 10° NE
[s.n.52658] 2.5 09:59:02 33° SW 10:00:08 81° SE 10:02:59 10° NE
[s.n.52659] 2.5 09:59:08 33° SW 10:00:15 81° SE 10:03:05 10° NE
[s.n.52657] 2.5 09:59:17 33° SW 10:00:23 82° SE 10:03:13 10° NE
SL-16 R/B 3.8 10:00:08 18° WSW 10:02:08 20° W 10:06:38 10° NW
Cosmos 1023 Rocket 4.5 09:57:59 10° NNW 10:03:17 89° WSW 10:08:32 10° SSE
Cosmos 1943 Rocket 3.5 10:00:31 10° NW 10:04:36 21° W 10:06:33 17° SW
FENGYUN 3A 3.7 10:00:27 10° NNE 10:05:51 81° ESE 10:11:15 10° S
Cosmos 2263 4.2 10:01:42 10° NNW 10:07:23 79° WSW 10:13:06 10° SSE
Cosmos 1624 Rocket 4.1 10:02:57 13° SSW 10:07:44 85° ESE 10:13:03 10° NNE
Cosmos 1408 2.6 10:04:50 12° S 10:08:10 81° E 10:11:49 10° N
Cosmos 2228 4.0 10:05:13 10° NNW 10:08:57 28° W 10:11:19 17° SW
ADEOS II 3.8 10:06:48 10° NNW 10:10:20 18° WNW 10:13:19 12° WSW
IDEFIX/ARIANE 42P 4.0 10:06:46 10° NNW 10:10:44 22° WNW 10:13:53 13° WSW
ARIANE 5 R/B 3.0 10:06:14 10° NNE 10:11:14 60° ESE 10:16:09 10° S
CBERS-1 4.3 10:09:15 10° N 10:14:12 52° WNW 10:18:36 13° SW
Cosmos 2058 Rocket 3.0 10:14:58 10° N 10:19:22 85° W 10:23:42 10° S
Cosmos 2056 Rocket 3.5 10:14:38 12° SSW 10:19:25 75° WNW 10:24:41 10° NNE
OAO 2 Rocket 3.6 10:16:57 15° WSW 10:20:51 49° S 10:25:35 10° E
Cosmos 1626 Rocket 4.1 10:17:14 10° S 10:21:33 60° E 10:25:53 10° NNE
Cosmos 2251 Rocket 4.4 10:25:37 10° NW 10:30:08 29° W 10:34:40 10° SSW
Cosmos 2369 Rocket 2.8 10:26:32 10° NW 10:31:30 34° WSW 10:36:27 10° SSW
Nadezhda 3 Rocket 4.4 10:28:43 10° S 10:34:59 71° E 10:41:14 10° NNE
Cosmos 2218 Rocket 4.2 10:30:25 10° NNW 10:36:27 52° W 10:42:32 10° SSW
Cosmos 1190 Rocket 4.0 10:31:33 10° NNW 10:36:51 74° WSW 10:42:07 10° S
Cosmos 1656 Rocket 4.1 10:33:52 10° NW 10:38:46 36° WSW 10:43:41 10° S
IRS-P3 4.2 10:33:52 10° N 10:39:11 68° WNW 10:44:27 10° SSW
Cosmos 1869 3.6 10:39:24 10° N 10:43:19 70° E 10:47:09 10° SSE
CZ-4C R/B 4.1 10:40:27 10° SSE 10:43:57 52° ENE 10:47:38 10° N
In-Cosmos 22 Rocket 4.3 10:39:27 10° SSW 10:45:12 70° W 10:51:03 10° N
Spot 4 Rocket 4.5 10:41:14 10° NNE 10:46:21 65° ESE 10:51:26 10° S
Helios 1B rocket 3.8 10:43:15 10° NNW 10:46:26 22° WNW 10:49:36 10° WSW
Meteor 1-27 4.3 10:40:59 10° N 10:46:47 88° E 10:52:26 10° S
Cosmos 1758 Rocket 4.3 10:43:40 10° S 10:47:56 55° E 10:52:12 10° NNE
PAYLOAD A 4.3 10:45:29 10° N 10:49:59 45° WNW 10:54:35 10° SW
CZ-2D R/B 3.4 10:46:16 10° N 10:50:15 68° WNW 10:54:10 10° SSW
ALOS 2.9 10:46:39 10° N 10:51:00 40° WNW 10:55:20 10° SW
